Temperature
19 17 17 17 18 18 18 18 18 18 18 18 17 17 17 17 17 16 17 17 18 18 19 19 19 19 18 18 18 18 18 17 17 17 17 16 16 16 16 15 15 15 15 15
17 17 18 19 19 19 18 18 18 18 18 18 17 17 16 16 16 17 17 17 17 18 18 18 18 18 18 18 18 18 18 17 17 17 17 16 16 16 16 15 15 15 15 15
18 18 19 19 19 18 18 18 18 18 18 17 17 16 16 16 17 17 17 17 18 18 18 18 18 18 18 18 18 18 18 17 17 17 17 16 16 16 16 16 15 15 15 15
18 18 19 19 19 18 18 18 18 18 17 16 17 15 16 16 15 16 16 17 17 18 18 18 18 18 18 18 18 18 18 17 17 17 17 16 16 16 16 16 15 15 15 15
18 18 19 19 19 19 18 18 18 18 17 16 16 16 15 15 16 15 16 17 17 18 18 18 18 18 18 18 18 17 17 17 17 17 16 16 16 16 16 16 15 15 15 15
18 19 19 19 19 19 18 17 16 15 15 15 16 15 15 15 16 16 16 17 17 18 18 18 18 18 18 18 17 17 17 17 17 16 16 16 16 16 16 16 15 15 15 15
18 18 19 19 19 18 17 16 15 15 14 15 15 15 15 16 16 16 16 17 17 18 18 18 18 18 18 18 17 17 17 17 17 16 16 16 16 16 16 15 15 15 15 15
17 17 18 19 19 18 17 16 15 16 15 15 15 15 16 16 16 17 17 17 17 17 18 18 18 18 18 18 17 17 17 17 16 16 16 16 16 15 15 15 15 15 15 15
16 17 18 19 19 18 17 16 16 15 15 15 14 15 16 16 16 16 16 16 17 17 17 17 17 18 18 18 17 17 17 17 16 16 16 16 15 15 15 15 15 15 15 14
16 17 17 18 18 18 17 15 14 15 15 15 15 15 15 17 16 15 15 16 16 17 17 17 17 17 17 17 17 17 17 16 16 16 16 15 15 15 15 15 15 14 14 14
16 16 16 17 18 17 16 16 14 13 14 14 15 15 16 16 16 15 15 16 16 17 17 17 17 17 17 17 17 17 16 16 16 15 15 15 15 15 15 15 14 14 14 14
15 14 14 16 17 17 17 16 14 15 14 13 13 15 17 15 15 15 16 16 17 17 17 17 17 17 17 16 16 16 16 16 16 15 15 15 15 15 15 14 14 14 14 14
14 14 14 15 16 16 16 16 15 14 13 12 13 15 16 15 15 16 16 16 17 17 17 17 16 16 16 16 16 16 16 16 15 15 15 15 15 15 14 14 14 14 13 13
15 13 14 15 15 15 16 16 15 14 13 13 13 15 16 15 15 15 16 16 16 16 16 16 16 16 16 16 16 16 15 15 15 15 15 15 14 14 14 14 14 13 13 13
14 13 14 14 15 15 15 16 15 14 14 14 14 15 16 15 15 15 16 16 16 16 16 16 16 16 16 16 16 15 15 15 15 14 14 14 14 14 14 13 13 13 13 13
12 13 14 14 15 15 15 15 15 15 15 14 14 15 15 15 15 15 15 16 16 16 16 16 16 16 16 15 15 15 15 14 14 14 14 14 14 13 13 13 13 13 13 12
11 12 13 13 13 14 14 15 15 15 14 14 15 15 15 14 14 15 16 16 16 16 16 16 16 16 15 15 15 15 14 14 14 14 14 13 13 13 13 13 13 12 12 12
11 11 10 11 13 14 15 15 15 15 15 14 14 14 14 15 15 16 16 16 16 16 16 16 15 15 15 15 14 14 14 14 14 13 13 13 13 12 12 12 12 12 12 12
10 11 10 10 12 13 14 14 14 14 14 14 14 14 14 15 14 15 16 16 16 16 16 15 15 15 15 15 14 14 14 14 13 13 13 13 13 12 12 12 12 12 12 11
10 10 10 10 12 13 14 14 15 14 14 14 14 13 13 13 12 13 16 16 16 15 15 15 15 15 14 14 14 14 14 13 13 13 13 12 12 12 12 12 12 11 11 11
11 10 10 10 11 12 13 13 14 14 14 14 14 14 13 13 14 15 15 15 15 15 15 15 14 14 14 14 13 13 13 13 13 13 12 12 12 12 12 11 11 11 11 11
11 10 10 9 11 12 13 13 13 13 14 14 14 14 14 14 14 14 15 15 15 14 14 14 14 14 14 13 13 13 13 12 12 12 12 12 12 11 11 11 11 11 10 10
10 10 10 10 11 12 12 13 13 14 14 14 14 14 14 14 14 14 14 14 14 14 14 14 13 13 13 13 12 12 12 12 12 12 11 11 11 11 11 11 10 10 10 10
9 9 9 9 10 11 12 13 13 13 13 14 13 13 13 13 13 13 13 13 13 13 13 13 13 13 12 12 12 12 12 11 11 11 11 11 11 10 10 10 10 10 9 9
9 8 8 9 9 11 12 12 12 13 13 13 13 13 13 13 13 13 13 13 13 13 12 12 12 12 12 12 11 11 11 11 11 11 10 10 10 10 10 10 9 9 9 9
7 8 8 9 10 10 11 12 12 12 12 12 12 12 12 12 12 12 12 12 12 12 12 12 12 11 11 11 11 11 10 10 10 10 10 10 10 10 9 9 9 9 8 8
Wind_Speed
3 4 2 5 6 5 4 3 2 3 1 2 2 3 5 2 3 4 4 4 5 6 5 2 3 3 3 3 3 4 4 3 3 2 2 2 1 1 1 1 1 2 3 4
5 1 5 4 4 3 3 2 2 2 0 2 1 4 5 3 5 6 7 7 7 5 3 2 2 3 4 4 3 4 4 4 3 3 2 2 2 1 1 1 1 1 2 3
5 4 2 3 2 2 3 5 4 3 2 2 1 5 4 3 3 4 4 5 5 7 6 4 4 4 4 4 5 4 4 4 3 3 3 3 3 2 1 1 0 0 2 3
2 2 2 2 3 5 4 6 5 3 2 2 1 3 6 4 3 4 5 5 5 5 5 5 5 5 5 5 4 4 4 3 3 4 4 4 3 2 3 2 1 1 1 2
3 2 3 3 4 6 5 1 3 2 3 1 0 2 7 2 5 7 7 7 7 6 7 6 6 7 6 5 4 4 4 4 3 3 4 4 3 2 1 0 1 1 0 1
3 2 2 4 2 3 3 6 6 5 4 1 4 4 6 4 7 6 7 8 8 7 7 6 5 4 4 3 3 3 4 4 3 4 4 4 4 2 2 1 1 1 1 1
4 4 2 1 2 3 4 5 3 3 2 5 3 4 8 7 6 7 8 8 7 7 6 6 6 5 5 4 5 4 5 4 3 4 4 4 4 4 3 3 3 2 2 2
1 5 3 2 4 5 4 7 6 4 4 5 2 5 7 5 4 4 5 5 6 6 7 7 8 7 7 6 5 5 5 4 4 4 4 4 3 3 3 3 3 3 3 3
4 5 3 2 2 7 5 3 6 6 2 2 5 6 7 2 2 1 2 4 5 6 6 6 6 6 6 6 6 6 6 5 4 5 4 4 4 3 3 3 3 2 2 2
5 3 4 2 3 3 5 8 5 4 3 3 5 5 5 5 5 3 3 5 5 4 5 5 4 5 5 6 5 5 6 6 5 4 4 3 4 4 3 3 3 3 3 2
3 3 4 2 2 4 3 4 4 4 4 4 3 6 5 7 6 6 6 5 5 6 6 5 5 4 5 5 5 5 5 5 4 5 4 3 3 3 3 3 3 3 3 3
2 4 2 5 4 2 4 6 7 5 4 4 3 7 5 5 5 4 4 4 4 5 4 4 4 3 3 4 5 5 5 5 5 4 4 4 3 2 3 3 3 3 3 3
3 4 1 5 4 2 1 3 4 5 4 5 5 7 3 3 2 2 3 4 3 4 3 2 2 3 3 4 5 5 5 5 4 4 3 3 3 3 3 4 3 3 3 3
3 3 5 7 6 3 3 3 4 5 4 5 8 9 8 6 5 4 3 3 3 3 3 3 3 3 4 4 4 4 5 4 4 4 4 4 4 4 4 3 3 3 3 3
3 3 4 6 6 4 6 7 6 7 8 9 10 10 11 8 7 6 4 3 2 3 3 4 4 4 3 3 3 3 4 4 4 4 4 4 3 3 2 2 2 2 2 3
2 2 1 3 4 4 6 8 8 9 8 8 8 10 8 5 3 4 4 5 4 5 4 4 4 4 4 5 4 4 4 4 4 5 5 3 2 2 2 2 2 2 2 2
1 3 2 4 4 3 6 7 8 7 7 8 10 10 5 3 5 6 6 6 6 6 5 5 5 5 5 5 5 6 5 4 4 4 3 3 3 3 3 3 2 3 3 3
5 4 3 2 0 6 8 4 6 7 7 6 7 6 6 6 4 4 5 6 6 5 5 5 5 4 4 4 4 4 4 4 4 4 4 3 3 3 3 3 3 3 2 3
6 6 4 3 3 7 7 3 3 4 6 6 7 6 4 1 1 3 3 4 6 5 5 5 4 4 3 2 3 3 3 4 4 4 4 4 4 4 4 3 3 3 2 2
3 4 4 3 4 6 6 3 2 2 5 4 4 5 3 4 1 5 3 1 2 2 2 2 2 1 1 1 2 3 4 5 5 6 5 5 5 5 5 5 3 2 2 2
2 2 4 5 6 8 6 4 2 3 6 4 4 5 5 6 6 4 1 1 2 2 2 2 2 2 2 1 2 3 4 5 6 4 4 4 4 5 4 3 2 3 3 3
5 4 4 4 5 7 3 2 3 6 4 4 4 4 4 5 3 1 1 1 1 1 1 2 2 1 0 2 3 2 3 4 3 3 3 3 3 3 3 4 3 3 4 3
5 6 5 7 6 4 3 4 5 3 4 4 3 3 3 3 2 1 1 1 1 1 1 1 2 1 0 1 2 3 3 2 2 2 2 3 3 3 3 4 4 3 3 3
3 1 3 4 6 6 6 5 4 3 3 3 3 2 2 2 2 1 1 1 1 1 1 1 2 1 1 1 2 3 2 1 2 2 2 2 3 3 3 3 4 4 4 3
5 2 2 5 7 6 5 4 4 4 4 3 2 0 1 2 1 2 2 2 2 1 1 1 2 2 2 2 1 1 2 2 2 2 2 2 3 3 3 3 3 4 4 5
5 5 5 7 6 5 7 5 4 3 4 2 1 2 2 1 1 1 2 2 2 2 1 1 2 2 2 2 2 1 1 3 3 2 2 2 2 2 3 3 2 1 3 4
Wind_Direction
59 86 171 204 194 184 170 176 232 251 236 143 212 255 267 237 194 204 205 202 207 218 232 203 178 157 140 143 143 152 157 157 137 124 137 138 155 142 102 92 119 134 139 143
54 242 226 185 166 158 163 183 260 307 329 157 230 275 266 220 209 209 208 204 207 213 225 205 169 152 164 166 166 165 169 160 163 164 156 151 142 145 163 77 71 122 150 153
174 229 188 150 146 164 202 197 216 230 12 31 39 316 285 257 229 222 218 210 203 199 203 206 187 181 172 176 179 180 179 169 171 155 120 92 69 48 44 27 262 319 166 168
225 253 159 164 203 172 231 223 194 181 127 283 131 284 282 257 264 242 229 216 214 208 197 194 188 186 191 200 183 171 166 159 161 156 150 148 157 184 215 210 213 218 161 159
244 197 170 207 223 182 216 165 144 148 148 343 311 208 282 286 257 251 235 222 217 207 193 192 193 194 197 192 177 175 157 155 158 155 160 154 161 189 197 186 194 210 162 147
253 255 198 213 213 157 126 72 59 53 76 291 235 192 275 239 227 241 229 219 214 206 198 197 197 185 184 173 166 163 157 167 164 162 159 165 172 162 143 175 200 223 218 197
324 309 290 174 94 58 91 92 36 4 6 257 250 210 251 252 233 223 221 215 209 200 194 193 187 185 187 176 175 173 169 178 174 170 174 186 183 175 182 196 207 207 212 219
208 285 268 210 176 173 165 144 161 198 225 278 288 237 257 265 261 237 215 201 193 193 194 195 195 192 191 186 179 173 177 185 178 184 197 198 189 191 203 204 206 208 214 221
184 253 291 245 191 144 137 171 168 142 172 258 278 285 302 295 296 231 180 178 192 197 197 196 194 192 189 188 187 183 182 185 191 196 198 199 200 206 209 209 212 218 222 212
169 241 293 299 84 51 145 147 111 130 165 254 287 277 258 274 263 243 212 208 206 197 193 193 194 197 196 194 190 184 187 194 200 200 206 210 212 216 210 194 211 219 223 207
139 172 311 1 175 185 120 119 120 129 157 171 261 273 236 233 239 230 230 222 204 199 197 195 198 202 198 189 182 183 190 197 200 202 208 213 219 213 200 205 218 218 219 204
137 132 253 268 270 225 182 172 153 163 214 185 198 267 277 249 251 226 223 219 203 199 199 197 192 182 187 192 192 191 194 198 205 204 201 210 210 192 196 219 226 214 214 209
135 122 45 335 338 355 167 174 166 143 138 169 190 261 295 341 298 227 215 214 202 193 186 180 177 192 204 209 205 201 201 202 198 189 189 198 197 194 208 220 222 212 208 202
122 141 180 210 229 223 243 219 170 149 175 210 223 248 281 294 284 267 237 215 195 183 183 189 201 213 215 216 213 210 211 201 189 181 185 199 209 211 215 212 211 210 197 185
108 189 227 243 251 234 236 237 209 205 206 211 237 239 256 254 246 242 226 201 179 190 194 207 215 220 221 222 222 215 212 201 187 180 189 208 214 210 203 199 202 200 197 194
87 179 219 272 266 252 258 253 234 229 223 227 247 258 253 253 226 221 211 197 204 218 217 220 220 220 221 221 221 215 213 205 185 187 200 202 187 183 190 194 186 175 183 181
157 154 164 256 283 321 266 234 220 225 219 202 228 245 250 239 227 223 218 210 215 221 217 218 222 220 224 222 212 210 210 193 183 192 197 191 183 186 199 192 173 186 188 175
171 163 169 214 54 242 248 247 216 226 247 228 233 249 236 232 241 245 216 211 223 220 215 221 227 227 226 218 215 205 190 181 183 188 193 192 184 193 189 176 186 198 183 179
182 163 154 160 217 271 291 268 192 210 261 236 233 253 255 242 8 307 234 209 218 215 212 215 216 214 208 209 205 184 183 184 185 195 200 198 190 188 182 189 201 195 174 183
107 137 149 163 197 240 251 271 252 145 274 273 231 242 227 124 185 267 265 214 216 207 193 188 178 150 166 218 177 176 190 193 205 209 206 199 190 187 191 196 196 185 169 175
102 125 177 198 228 259 262 282 93 175 253 281 240 234 199 199 219 240 244 190 167 170 172 156 143 156 200 183 155 185 203 217 221 207 194 190 189 189 187 181 173 159 149 142
186 179 192 175 214 253 285 85 175 236 279 283 267 244 214 225 240 234 181 149 120 120 125 133 143 180 162 147 150 182 233 240 214 182 179 182 183 181 169 158 155 150 144 141
205 197 194 198 223 261 268 250 270 267 269 275 262 256 206 202 223 219 213 183 167 150 150 157 158 157 324 181 173 198 241 230 172 156 173 176 169 165 159 158 155 146 147 151
263 193 190 248 266 279 289 289 301 299 275 280 261 239 193 196 201 183 178 192 200 175 170 158 146 164 245 253 220 213 223 180 154 163 181 175 165 162 157 157 159 157 163 167
250 211 230 262 279 302 296 292 303 320 332 336 330 269 183 152 190 206 208 215 217 208 202 179 180 209 238 242 244 239 204 161 151 166 178 175 175 173 167 164 171 171 178 175
228 205 208 245 250 239 269 284 298 304 302 292 313 337 330 218 213 225 225 219 211 221 210 197 207 221 242 241 249 252 206 174 166 175 194 193 179 173 167 165 159 157 164 167
Height
1504 1510 1515 1514 1513 1514 1517 1521 1523 1519 1514 1517 1520 1520 1517 1515 1516 1516 1516 1517 1518 1519 1521 1523 1525 1526 1528 1530 1531 1532 1534 1535 1536 1536 1537 1538 1538 1539 1539 1540 1540 1541 1541 1542
1510 1513 1508 1508 1509 1512 1516 1521 1522 1518 1515 1517 1520 1519 1515 1514 1513 1513 1514 1515 1516 1518 1520 1521 1523 1525 1526 1528 1530 1531 1532 1534 1535 1536 1536 1537 1538 1538 1539 1540 1540 1541 1541 1541
1510 1509 1505 1507 1510 1514 1516 1520 1520 1520 1518 1518 1520 1522 1516 1512 1511 1512 1512 1513 1514 1516 1517 1519 1521 1523 1524 1526 1528 1529 1531 1532 1534 1535 1536 1536 1537 1538 1538 1539 1539 1540 1540 1540
1508 1505 1506 1508 1510 1512 1518 1511 1513 1517 1524 1529 1524 1535 1519 1513 1512 1510 1510 1511 1512 1514 1515 1517 1519 1521 1522 1524 1526 1528 1529 1531 1532 1533 1534 1535 1535 1536 1537 1537 1538 1538 1539 1539
1508 1505 1506 1508 1507 1508 1511 1508 1512 1516 1523 1530 1528 1533 1524 1514 1513 1508 1507 1508 1509 1511 1513 1515 1517 1519 1521 1523 1524 1526 1528 1529 1530 1531 1532 1533 1534 1535 1535 1536 1536 1537 1537 1537
1505 1503 1503 1504 1503 1505 1507 1512 1518 1523 1528 1537 1528 1533 1527 1516 1509 1505 1503 1504 1506 1508 1511 1513 1515 1517 1519 1521 1523 1524 1526 1527 1528 1529 1530 1531 1532 1532 1533 1533 1534 1534 1535 1535
1509 1504 1502 1501 1505 1507 1510 1522 1537 1539 1544 1540 1526 1528 1522 1505 1501 1500 1500 1501 1502 1505 1508 1510 1512 1514 1516 1518 1520 1522 1523 1524 1526 1527 1528 1529 1529 1530 1530 1531 1531 1532 1532 1533
1517 1516 1503 1501 1503 1509 1512 1519 1536 1543 1545 1539 1527 1528 1513 1500 1498 1497 1497 1498 1500 1502 1505 1507 1509 1511 1513 1515 1517 1519 1520 1522 1523 1524 1525 1526 1527 1527 1528 1528 1529 1529 1530 1530
1516 1515 1501 1499 1499 1503 1512 1518 1518 1531 1535 1539 1532 1521 1507 1498 1497 1496 1496 1497 1498 1500 1502 1504 1506 1508 1511 1513 1515 1516 1518 1519 1520 1521 1522 1523 1524 1524 1525 1525 1526 1527 1527 1528
1508 1513 1504 1500 1500 1501 1505 1512 1523 1530 1539 1542 1533 1524 1516 1501 1498 1496 1496 1496 1497 1498 1500 1502 1504 1506 1508 1510 1512 1514 1515 1516 1517 1519 1519 1520 1521 1521 1522 1523 1523 1524 1525 1525
1506 1513 1510 1505 1504 1507 1509 1513 1519 1528 1530 1539 1538 1526 1501 1498 1495 1495 1494 1494 1495 1497 1498 1500 1502 1504 1505 1507 1509 1510 1512 1513 1514 1515 1516 1517 1517 1518 1519 1519 1520 1520 1521 1522
1506 1514 1517 1509 1502 1501 1503 1507 1515 1525 1528 1532 1534 1524 1494 1494 1492 1492 1493 1493 1494 1496 1497 1498 1500 1501 1503 1504 1505 1507 1508 1510 1511 1512 1513 1513 1514 1514 1515 1516 1517 1517 1518 1518
1506 1513 1521 1517 1512 1505 1505 1505 1508 1515 1524 1532 1532 1518 1493 1492 1491 1491 1491 1492 1493 1494 1496 1497 1498 1499 1500 1501 1502 1503 1505 1506 1507 1508 1509 1510 1510 1511 1511 1512 1513 1513 1514 1515
1502 1511 1517 1519 1514 1507 1506 1505 1507 1513 1522 1526 1521 1509 1496 1493 1491 1490 1490 1490 1491 1492 1494 1495 1496 1497 1497 1498 1499 1500 1501 1503 1504 1505 1505 1506 1506 1507 1508 1508 1509 1510 1510 1511
1502 1509 1508 1506 1503 1503 1503 1502 1504 1507 1508 1512 1506 1502 1493 1490 1489 1488 1488 1489 1489 1490 1491 1492 1493 1494 1495 1496 1496 1497 1498 1499 1500 1501 1502 1502 1503 1504 1504 1505 1506 1506 1507 1507
1503 1507 1507 1506 1502 1501 1501 1499 1499 1500 1500 1501 1499 1495 1486 1486 1486 1486 1486 1487 1487 1488 1489 1490 1491 1491 1492 1493 1493 1494 1495 1496 1497 1497 1498 1499 1499 1500 1501 1501 1502 1503 1503 1504
1505 1507 1511 1512 1505 1502 1503 1494 1494 1493 1492 1493 1494 1488 1483 1484 1483 1482 1483 1484 1484 1485 1486 1487 1488 1488 1489 1490 1490 1491 1492 1493 1493 1494 1494 1495 1496 1496 1497 1498 1498 1499 1500 1500
1503 1507 1512 1512 1508 1511 1495 1485 1485 1487 1486 1485 1484 1481 1480 1480 1480 1480 1481 1481 1482 1483 1484 1484 1485 1486 1487 1487 1488 1488 1489 1490 1490 1491 1491 1492 1493 1493 1494 1494 1495 1496 1496 1497
1497 1503 1511 1514 1511 1504 1492 1485 1484 1486 1485 1481 1480 1478 1478 1478 1479 1479 1479 1479 1480 1480 1481 1482 1483 1483 1484 1484 1485 1485 1486 1486 1487 1487 1488 1489 1490 1490 1491 1491 1492 1492 1493 1493
1497 1499 1507 1511 1508 1506 1491 1482 1480 1483 1486 1478 1477 1477 1477 1478 1483 1479 1477 1477 1478 1479 1479 1480 1481 1481 1481 1482 1482 1482 1483 1483 1483 1484 1485 1486 1487 1487 1487 1488 1489 1489 1490 1490
1501 1503 1505 1508 1506 1497 1485 1480 1480 1491 1486 1477 1475 1475 1475 1475 1476 1475 1475 1475 1476 1477 1477 1478 1478 1479 1479 1479 1479 1479 1480 1480 1480 1481 1482 1483 1483 1484 1484 1485 1486 1486 1487 1488
1497 1501 1503 1505 1505 1497 1481 1481 1483 1482 1476 1475 1474 1473 1472 1472 1473 1473 1473 1474 1474 1475 1475 1476 1476 1476 1477 1477 1477 1477 1477 1477 1478 1478 1479 1480 1480 1481 1481 1482 1483 1483 1484 1484
1493 1492 1493 1493 1491 1482 1480 1479 1478 1477 1475 1473 1472 1471 1471 1471 1471 1471 1472 1472 1472 1473 1474 1474 1474 1474 1474 1475 1475 1475 1475 1475 1475 1475 1476 1477 1477 1478 1478 1479 1479 1480 1480 1481
1489 1487 1488 1487 1482 1479 1478 1476 1475 1474 1473 1472 1471 1470 1469 1469 1469 1469 1470 1470 1471 1471 1472 1472 1472 1472 1472 1473 1473 1473 1473 1473 1473 1472 1473 1473 1474 1475 1475 1476 1476 1477 1477 1478
1486 1486 1486 1484 1480 1477 1474 1474 1473 1472 1471 1470 1469 1469 1468 1468 1467 1468 1468 1468 1469 1469 1469 1470 1470 1470 1470 1470 1470 1470 1470 1470 1470 1470 1470 1471 1471 1472 1472 1473 1474 1474 1475 1476
1482 1482 1484 1481 1476 1476 1473 1472 1472 1470 1469 1468 1468 1467 1467 1467 1466 1466 1466 1466 1466 1467 1467 1467 1468 1468 1468 1468 1468 1468 1468 1468 1467 1467 1468 1468 1468 1469 1470 1470 1471 1472 1473 1473